Regional Weather Roundup
Issued by NWS

Home | Current Version | Previous Version | Text Only | Print | Product List | Glossary Off
Versions: 1 2 3 4 5 6 7 8 9 10 11 12 13 14 15 16 17 18 19 20 21 22 23 24 25 26 27 28 29 30 31 32 33 34 35 36 37 38 39 40 41 42 43 44 45 46 47 48 49 50

000
ASUS43 KLOT 262204
RWRIL

ILLINOIS REGIONAL WEATHER ROUNDUP
NATIONAL WEATHER SERVICE CHICAGO/ROMEOVILLE IL
500 PM CDT MON JUN 26 2017

NOTE: "FAIR" INDICATES FEW OR NO CLOUDS BELOW 12,000 FEET WITH NO
SIGNIFICANT WEATHER AND/OR OBSTRUCTIONS TO VISIBILITY.

* THESE STATIONS ARE NOT UNDER NWS QUALITY CONTROL. THEY ALSO MAY NOT
  REPORT WEATHER SUCH AS PRECIPITATION OR FOG.

ILZ001-002-007-009-015-016-024-262300-
NORTHWEST ILLINOIS

CITY           SKY/WX    TMP DP  RH WIND       PRES   REMARKS
MOLINE         MOSUNNY   74  45  35 NW15G29   30.06F
STERLING*      MOSUNNY   72  45  37 NW15G22   30.06F
SAVANNA*       SUNNY     71  43  36 NW16G24   30.07S
$$

ILZ003-004-008-010-011-017-018-262300-
NORTH CENTRAL ILLINOIS

CITY           SKY/WX    TMP DP  RH WIND       PRES   REMARKS
ROCKFORD       PTSUNNY   69  44  40 NW12G22   30.06F
FREEPORT*      MOSUNNY   67  44  41 NW14G22   30.08F
ROCHELLE*      MOSUNNY   69  44  40 NW17G24   30.06S
DE KALB*       PTSUNNY   69  42  37 NW15G26   30.05S
PERU*          PTSUNNY   68  47  46 NW12      30.06S
$$

ILZ005-006-012>014-019>023-262300-
NORTHEAST ILLINOIS

CITY           SKY/WX    TMP DP  RH WIND       PRES   REMARKS
CHICAGO-OHARE  PTSUNNY   71  41  33 NW16G28   30.02F
CHICAGO-MIDWAY PTSUNNY   70  42  36 NW21G26   30.02F
AURORA         MOSUNNY   72  42  34 W18G29    30.04S
LANSING*       PTSUNNY   70  39  32 W12G20    30.02F
JOLIET*        MOSUNNY   73  41  31 NW10G18   30.04S
WAUKEGAN       PTSUNNY   63  46  54 N12G23    30.04R
DUPAGE AIRPORT MOSUNNY   70  42  36 NW17G28   30.03F
WHEELING       CLOUDY    68  45  43 N16       30.04S
MORRIS*        MOSUNNY   73  42  31 NW14G24   30.02F
ROMEOVILLE*    MOSUNNY   71  38  29 NW18G24   30.03S
NORTHERLY ISL    N/A     69  39  33 NW12        N/A
$$

LMZ740>746-262300-
SOUTHERN LAKE MICHIGAN

STATION/POSITION SKY/WX   TEMP    WIND        PRES    VSBY  WAVE
                          AIR SEA DIR/SP/G                  HT/PER
                          (F)     (DEG/KT/KT) (MB)    (MI)  (FT/S)
SOUTHERN BUOY              58 61  360/ 14/ 17 1017.2          2/ 4
WILMETTE HARBOR            65 63  320/ 14/ 17   N/A           3/ 4
HARRISON CRIB              68     320/ 18/ 20   N/A
BURNHAM HARBOR             71                   N/A
CALUMET HARBOR             72     290/  9/ 15 1016.1F
BURNS HARBOR               65      10/  9/ 11 1017.3F
MICHIGAN CITY              66     340/ 15/ 16   N/A
MICHIGAN CITY 6N           65 67  360/ 12/ 16   N/A           2/ 4
ST. JOSEPH                 65 69  350/ 16/ 19 1016.6F         3/ 4
$$

ILZ025>027-034>036-040-047-049-050-058-095>099-262300-
WEST-CENTRAL ILLINOIS

CITY           SKY/WX    TMP DP  RH WIND       PRES   REMARKS
QUINCY         SUNNY     73  50  44 SW12      30.10F
GALESBURG*     CLOUDY    58  53  84 CALM      30.12S
MACOMB*        PTSUNNY   71  52  50 W12       30.11F
JACKSONVILLE*  CLOUDY    72  49  45 W9        30.11F
PITTSFIELD*    CLOUDY    70  51  50 SW7       30.13F
$$

ILZ028>032-037-038-041>044-048-051>054-059>061-262300-
CENTRAL ILLINOIS

CITY           SKY/WX    TMP DP  RH WIND       PRES   REMARKS
PONTIAC        LGT RAIN  64  58  80 W8        30.09S
BLOOMINGTON    LGT RAIN  58  52  80 SW8       30.12F
DECATUR        MOSUNNY   72  49  44 W13       30.11F
PEORIA         LGT RAIN  58  53  84 CALM      30.11S
LACON*         CLOUDY    65  51  59 SW12G17   30.08S
LINCOLN*       MOSUNNY   74  48  40 W6G17     30.10S
SPRINGFIELD    PTSUNNY   75  48  38 W12       30.11F
TAYLORVILLE    CLOUDY    69  47  45 W8        30.12F
$$

ILZ033-039-045-046-055>057-062-063-262300-
EAST-CENTRAL ILLINOIS

CITY           SKY/WX    TMP DP  RH WIND       PRES   REMARKS
CHAMPAIGN        N/A     72  50  45 W18G29    30.08F
RANTOUL*       MOSUNNY   73  51  46 W18G28    30.08F
MATTOON        CLOUDY    67  52  58 W10       30.11F
PARIS*         PTSUNNY   69  51  52 W16       30.11F
$$

ILZ079-100>102-262300-
SOUTHWEST ILLINOIS

CITY           SKY/WX    TMP DP  RH WIND       PRES   REMARKS
ALTON          CLOUDY    68  55  64 N6        30.13F
BELLEVILLE     CLOUDY    71  54  54 E5        30.12F
CAHOKIA*       PTSUNNY   75  48  38 NW6       30.13S
SPARTA*        CLOUDY    73  50  44 N7        30.14S
$$

ILZ064>066-069>071-074>076-080>082-084>086-088>090-092>094-262300-
SOUTH-CENTRAL ILLINOIS

CITY           SKY/WX    TMP DP  RH WIND       PRES   REMARKS
CARBONDALE     CLOUDY    79  51  37 VRB5      30.10F
CAIRO*         CLOUDY    76  51  42 CALM      30.12F
EFFINGHAM*     CLOUDY    70  49  48 W6        30.14F
MARION         PTSUNNY   79  50  36 N6        30.10F
MT. VERNON     MOSUNNY   73  53  49 VRB6      30.11F
CENTRALIA*     MOSUNNY   72  52  49 N8        30.12S
SALEM*         MOSUNNY   70  48  45 N6        30.14S
METROPOLIS*    SUNNY     77  53  42 CALM      30.12F
$$

ILZ067-068-072-073-078-083-087-091-262300-
SOUTHEAST ILLINOIS

CITY           SKY/WX    TMP DP  RH WIND       PRES   REMARKS
LAWRENCEVILLE  CLOUDY    70  49  47 N8        30.12F
FLORA*         MOSUNNY   72  48  43 N8        30.12F
FAIRFIELD*     CLOUDY    74  51  44 N7        30.11F
HARRISBURG*    MOSUNNY   77  52  41 N3        30.11F
ROBINSON*      PTSUNNY   68  49  49 NW5       30.13F
CARMI*         PTSUNNY   74  53  47 N12G18    30.10F
$$

ABBREVIATIONS USED IN REMARKS
   TC - TEMPERATURE IN CELSIUS
  WCI - WIND CHILL INDEX
   HX - HEAT INDEX
  VSB - VISIBILITY
$$




USA.gov is the U.S. government's official web portal to all federal, state and local government web resources and services.